Regional Weather Roundup
Issued by NWS

Home | Current Version | Previous Version | Text Only | Print | Product List | Glossary On
Versions: 1 2 3 4 5 6 7 8 9 10 11 12 13 14 15 16 17 18 19 20 21 22 23 24 25 26 27 28 29 30 31 32 33 34 35 36 37 38 39 40 41 42 43 44 45 46 47 48 49 50
000
ASUS43 KTOP 220659
RWRKS

WEATHER ROUNDUP FOR KANSAS
NATIONAL WEATHER SERVICE GOODLAND KS
200 AM CDT FRI AUG 22 2014

NOTE:  "FAIR" INDICATES FEW OR NO CLOUDS BELOW 12,000 FEET WITH NO
SIGNIFICANT WEATHER AND/OR OBSTRUCTIONS TO VISIBILITY.

KSZ001>006-013>018-027>032-041>047-220800-
NORTHWEST KANSAS

CITY           SKY/WX    TMP DP  RH WIND       PRES   REMARKS
GOODLAND       CLEAR     64  55  72 NE5       30.02S
HAYS           PTCLDY    79  64  61 SE10      29.90F
HILL CITY      MOCLDY    73  67  81 N6        29.90F
RUSSELL        PTCLDY    81  65  58 SE10      29.88F
$$

KSZ061>065-074>080-084>089-220800-
SOUTHWEST KANSAS

CITY           SKY/WX    TMP DP  RH WIND       PRES   REMARKS
DODGE CITY     LGT RAIN  81  64  56 S17       29.93F
ELKHART          N/A     75  58  55 S9          N/A
GARDEN CITY    PTCLDY    76  61  59 CALM      29.94F
GREAT BEND     MOCLDY    82  66  57 S14       29.90F
LIBERAL        CLEAR     77  61  57 S6        29.97S
$$

KSZ066>073-081>083-090>101-220800-
SOUTHEAST KANSAS

CITY           SKY/WX    TMP DP  RH WIND       PRES   REMARKS
CHANUTE        CLEAR     80  71  74 S9        29.96R
COFFEYVILLE    CLEAR     82  72  71 S10       29.95S
HUTCHINSON     MOCLDY    83  70  64 S15G23    29.91F
NEWTON         PTCLDY    82  66  57 S20       29.95F
PARSONS        CLEAR     80  71  74 S7        29.97S
WICHITA INTL   PTCLDY    82  70  66 S14       29.92F
WICHITA JABRA  CLEAR     82  69  64 S16       29.92F
WINFIELD       CLEAR     80  71  74 S13       29.94F
$$

KSZ007>012-019>026-033>040-048>060-102>105-220800-
NORTHEAST KANSAS

CITY           SKY/WX    TMP DP  RH WIND       PRES   REMARKS
CONCORDIA      CLOUDY    75  71  87 S7        29.89R
EMPORIA        CLEAR     80  71  74 S13G23    29.92S
LAWRENCE       PTCLDY    85  71  63 S10       29.90F
MANHATTAN      CLOUDY    80  69  69 W3        29.88F
OLATHE IND     CLEAR     80  71  74 S12       29.92F
OLATHE EXE     CLEAR     79  71  76 S10       29.92F
SALINA         PTCLDY    84  71  65 S10       29.89F
TOPEKA BILLARD MOCLDY    85  73  67 VRB7      29.90R
TOPEKA FORBES  MOCLDY    83  71  67 S13       29.89F
$$


USA.gov is the U.S. government's official web portal to all federal, state and local government web resources and services.